KT4FD Weather Reports


Display with metric or nautical units.
time (UTC)temp
F
wind
direction
speed
MPH
gust
MPH
rain 1hr
in
rain 24hr
in
rain mn
in
humidity
%
barometer
mb
20260506051003 63 210 0.0 0.0 0.00 0.00 0.00 70 1016.1
20260506034003 62 204 2.0 8.0 0.00 0.00 0.00 69 1016.1
20260506033004 62 172 0.0 0.0 0.00 0.00 0.00 71 1016.1
20260506032003 61 172 0.0 0.0 0.00 0.00 0.00 76 1016.3
20260506031003 62 172 0.0 0.0 0.00 0.00 0.00 75 1016.4
20260506030003 62 172 0.0 0.0 0.00 0.00 0.00 75 1016.5
20260506025003 62 173 0.0 0.0 0.00 0.00 0.00 73 1016.3
20260506024003 61 172 0.0 0.0 0.00 0.00 0.00 71 1016.0
20260506023003 61 173 0.0 0.0 0.00 0.00 0.00 74 1016.1
20260506022003 61 173 0.0 0.0 0.00 0.00 0.00 72 1016.3
20260506021003 61 172 0.0 0.0 0.00 0.00 0.00 73 1016.2
20260506020003 61 172 0.0 0.0 0.00 0.00 0.00 72 1016.1
20260506015003 61 172 0.0 0.0 0.00 0.00 0.00 73 1016.0
20260506014003 61 172 0.0 0.0 0.00 0.00 0.00 72 1015.9
20260506013003 61 172 0.0 0.0 0.00 0.00 0.00 71 1015.7
20260506012003 62 172 0.0 0.0 0.00 0.00 0.00 70 1015.7
20260506011004 63 172 0.0 0.0 0.00 0.00 0.00 67 1015.7
20260506010003 64 172 0.0 0.0 0.00 0.00 0.00 65 1015.6
20260506005003 65 172 0.0 2.0 0.00 0.00 0.00 63 1015.6
20260506004003 66 172 0.0 0.0 0.00 0.00 0.00 62 1015.7
20260506003003 67 172 0.0 0.0 0.00 0.00 0.00 61 1015.8
20260506002004 67 172 0.0 2.0 0.00 0.00 0.00 59 1015.6
20260506001004 68 172 0.0 0.0 0.00 0.00 0.00 57 1015.5
20260506000004 69 172 0.0 1.0 0.00 0.00 0.00 56 1015.6
20260505235003 70 176 0.0 0.0 0.00 0.00 0.00 57 1015.6
20260505234003 70 223 0.0 0.0 0.00 0.00 0.00 56 1015.5
20260505233003 71 292 0.0 1.0 0.00 0.00 0.00 53 1015.4
20260505232003 71 270 0.0 1.0 0.00 0.00 0.00 52 1015.7
20260505231003 72 270 1.0 3.0 0.00 0.00 0.00 51 1015.8
20260505230003 72 271 0.0 2.0 0.00 0.00 0.00 51 1015.7
20260505225003 72 271 1.0 3.0 0.00 0.00 0.00 48 1015.7
20260505214003 75 162 3.0 12.0 0.00 0.00 0.00 46 1015.7
20260505213003 76 188 3.0 7.0 0.00 0.00 0.00 45 1015.7
20260505212003 76 187 5.0 10.0 0.00 0.00 0.00 44 1015.6
20260505211003 75 202 5.0 10.0 0.00 0.00 0.00 44 1015.8
20260505210003 75 202 5.0 17.0 0.00 0.00 0.00 41 1016.0
20260505205003 76 187 6.0 15.0 0.00 0.00 0.00 42 1015.7
20260505204003 77 220 6.0 13.0 0.00 0.00 0.00 43 1015.8
20260505203003 77 210 5.0 13.0 0.00 0.00 0.00 45 1015.7
20260505202003 77 192 5.0 10.0 0.00 0.00 0.00 45 1015.9
20260505201003 76 198 6.0 15.0 0.00 0.00 0.00 44 1016.1
20260505200004 77 180 7.0 12.0 0.00 0.00 0.00 42 1016.1
20260505195003 77 205 6.0 15.0 0.00 0.00 0.00 43 1016.2
20260505183003 74 189 3.0 15.0 0.00 0.00 0.00 46 1017.0
20260505182003 74 223 6.0 13.0 0.00 0.00 0.00 46 1017.3
20260505181004 74 225 8.0 15.0 0.00 0.00 0.00 47 1017.4
20260505180003 73 217 6.0 15.0 0.00 0.00 0.00 50 1017.5
20260505175003 73 214 7.0 15.0 0.00 0.00 0.00 51 1017.8
20260505174003 73 214 6.0 12.0 0.00 0.00 0.00 51 1018.0
20260505163003 71 223 7.0 15.0 0.00 0.00 0.00 49 1018.3
20260505162003 71 214 8.0 20.0 0.00 0.00 0.00 50 1018.4
20260505161004 70 205 7.0 14.0 0.00 0.00 0.00 51 1018.3
20260505125003 55 196 0.0 0.0 0.00 0.00 0.00 84 1018.0
20260505124004 54 198 0.0 0.0 0.00 0.00 0.00 86 1018.0
20260505123003 52 199 0.0 1.0 0.00 0.00 0.00 86 1018.1
20260505091004 48 248 0.0 0.0 0.00 0.00 0.00 86 1017.4
20260505090003 47 248 0.0 1.0 0.00 0.00 0.00 86 1017.4
20260505085003 47 248 0.0 0.0 0.00 0.00 0.00 86 1017.4
20260505084003 47 248 0.0 1.0 0.00 0.00 0.00 86 1017.5
20260505083004 47 248 0.0 1.0 0.00 0.00 0.00 86 1017.5
20260505082003 48 248 0.0 1.0 0.00 0.00 0.00 86 1017.5
20260505081004 48 248 0.0 1.0 0.00 0.00 0.00 86 1017.5
20260505080003 48 248 0.0 2.0 0.00 0.00 0.00 86 1017.3
20260505075003 48 249 1.0 2.0 0.00 0.00 0.00 86 1017.4
20260505074003 48 248 0.0 0.0 0.00 0.00 0.00 86 1017.4
20260505073004 48 248 0.0 0.0 0.00 0.00 0.00 86 1017.4
20260505072004 48 248 0.0 0.0 0.00 0.00 0.00 86 1017.4
20260505071003 48 248 0.0 0.0 0.00 0.00 0.00 86 1017.4
20260505070004 49 248 0.0 0.0 0.00 0.00 0.00 86 1017.3